| time (UTC) | temp C | wind direction | speed KPH | gust KPH | rain 1hr cm | rain 24hr cm | rain mn cm | humidity % | barometer mb |
| 20260506081343 | 23 | 160 | 3.2 | 4.8 | 0.00 | 0.00 | 0.00 | 99 | 1005.0 |
| 20260506080835 | 23 | 193 | 3.2 | 4.8 | 0.00 | 0.00 | 0.00 | 99 | 1005.1 |
| 20260506080331 | 23 | 189 | 4.8 | 4.8 | 0.00 | 0.00 | 0.00 | 99 | 1005.2 |
| 20260506073316 | 23 | 202 | 1.6 | 3.2 | 0.00 | 0.00 | 0.00 | 99 | 1005.6 |
| 20260506072812 | 23 | 221 | 1.6 | 3.2 | 0.00 | 0.00 | 0.00 | 99 | 1005.4 |
| 20260506072310 | 23 | 208 | 3.2 | 4.8 | 0.00 | 0.00 | 0.00 | 99 | 1005.4 |
| 20260506071808 | 23 | 193 | 1.6 | 3.2 | 0.00 | 0.00 | 0.00 | 99 | 1005.6 |
| 20260506071306 | 23 | 175 | 4.8 | 6.4 | 0.00 | 0.00 | 0.00 | 99 | 1005.8 |
| 20260506070802 | 23 | 199 | 9.7 | 11.3 | 0.00 | 0.00 | 0.00 | 99 | 1005.8 |
| 20260506070259 | 23 | 208 | 3.2 | 4.8 | 0.00 | 0.00 | 0.00 | 99 | 1005.8 |
| 20260506062236 | 23 | 208 | 3.2 | 3.2 | 0.00 | 0.00 | 0.00 | 99 | 1005.9 |
| 20260506061732 | 23 | 155 | 3.2 | 3.2 | 0.00 | 0.00 | 0.00 | 99 | 1006.0 |
| 20260506061230 | 23 | 207 | 6.4 | 9.7 | 0.00 | 0.00 | 0.00 | 99 | 1006.0 |
| 20260506060728 | 23 | 167 | 0.0 | 1.6 | 0.00 | 0.00 | 0.00 | 99 | 1006.0 |
| 20260506060225 | 23 | 178 | 3.2 | 4.8 | 0.00 | 0.00 | 0.00 | 99 | 1006.0 |
| 20260506051157 | 23 | 150 | 3.2 | 3.2 | 0.00 | 0.00 | 0.00 | 98 | 1005.9 |
| 20260506050655 | 23 | 176 | 3.2 | 3.2 | 0.00 | 0.00 | 0.00 | 98 | 1006.0 |
| 20260506050152 | 23 | 150 | 3.2 | 3.2 | 0.00 | 0.00 | 0.00 | 98 | 1005.8 |
| 20260506044643 | 23 | 185 | 3.2 | 4.8 | 0.00 | 0.00 | 0.00 | 97 | 1005.9 |
| 20260506044140 | 23 | 223 | 4.8 | 9.7 | 0.00 | 0.00 | 0.00 | 97 | 1006.0 |
| 20260506043637 | 23 | 191 | 3.2 | 3.2 | 0.00 | 0.00 | 0.00 | 97 | 1005.7 |
| 20260506043135 | 23 | 183 | 3.2 | 4.8 | 0.00 | 0.00 | 0.00 | 97 | 1005.9 |
| 20260506042634 | 23 | 157 | 3.2 | 4.8 | 0.00 | 0.00 | 0.00 | 97 | 1005.8 |
| 20260506042131 | 23 | 179 | 3.2 | 4.8 | 0.00 | 0.00 | 0.00 | 97 | 1006.0 |
| 20260506041630 | 23 | 199 | 3.2 | 3.2 | 0.00 | 0.00 | 0.00 | 96 | 1005.9 |
| 20260506041126 | 23 | 152 | 4.8 | 6.4 | 0.00 | 0.00 | 0.00 | 96 | 1005.8 |
| 20260506040624 | 23 | 153 | 3.2 | 4.8 | 0.00 | 0.00 | 0.00 | 96 | 1005.8 |
| 20260506040120 | 23 | 177 | 8.0 | 11.3 | 0.00 | 0.00 | 0.00 | 96 | 1005.6 |
| 20260506035617 | 23 | 157 | 3.2 | 3.2 | 0.00 | 0.00 | 0.00 | 96 | 1005.4 |
| 20260506035114 | 23 | 203 | 6.4 | 11.3 | 0.00 | 0.00 | 0.00 | 96 | 1005.3 |
| 20260506034611 | 23 | 198 | 3.2 | 3.2 | 0.00 | 0.00 | 0.00 | 96 | 1005.4 |
| 20260506034108 | 23 | 182 | 6.4 | 9.7 | 0.00 | 0.00 | 0.00 | 96 | 1005.0 |
| 20260506033605 | 24 | 180 | 4.8 | 6.4 | 0.00 | 0.00 | 0.00 | 95 | 1005.1 |
| 20260506033102 | 24 | 167 | 3.2 | 3.2 | 0.00 | 0.00 | 0.00 | 95 | 1005.1 |
| 20260506032600 | 24 | 161 | 9.7 | 12.9 | 0.00 | 0.00 | 0.00 | 95 | 1005.0 |
| 20260506032056 | 24 | 206 | 6.4 | 9.7 | 0.00 | 0.00 | 0.00 | 95 | 1004.8 |
| 20260506031554 | 24 | 213 | 8.0 | 12.9 | 0.00 | 0.00 | 0.00 | 94 | 1005.0 |
| 20260506031050 | 24 | 201 | 6.4 | 6.4 | 0.00 | 0.00 | 0.00 | 94 | 1004.8 |
| 20260506030549 | 24 | 199 | 4.8 | 4.8 | 0.00 | 0.00 | 0.00 | 94 | 1004.7 |
| 20260506030046 | 24 | 186 | 4.8 | 9.7 | 0.00 | 0.00 | 0.00 | 93 | 1004.6 |
| 20260506025542 | 24 | 207 | 9.7 | 12.9 | 0.00 | 0.00 | 0.00 | 93 | 1004.5 |
| 20260506025038 | 25 | 202 | 6.4 | 6.4 | 0.00 | 0.00 | 0.00 | 93 | 1004.7 |
| 20260506024535 | 25 | 213 | 4.8 | 6.4 | 0.00 | 0.00 | 0.00 | 92 | 1004.5 |
| 20260506024031 | 25 | 160 | 6.4 | 9.7 | 0.00 | 0.00 | 0.00 | 92 | 1004.6 |
| 20260506023522 | 25 | 218 | 6.4 | 11.3 | 0.00 | 0.00 | 0.00 | 92 | 1004.5 |
| 20260506023020 | 25 | 164 | 8.0 | 11.3 | 0.00 | 0.00 | 0.00 | 91 | 1004.6 |
| 20260506022517 | 25 | 164 | 4.8 | 6.4 | 0.00 | 0.00 | 0.00 | 91 | 1004.6 |
| 20260506022015 | 25 | 112 | 4.8 | 6.4 | 0.00 | 0.00 | 0.00 | 91 | 1004.4 |
| 20260506021512 | 25 | 234 | 3.2 | 4.8 | 0.00 | 0.00 | 0.00 | 91 | 1004.5 |
| 20260506021009 | 25 | 219 | 8.0 | 12.9 | 0.00 | 0.00 | 0.00 | 90 | 1004.4 |
| 20260506020507 | 25 | 230 | 3.2 | 3.2 | 0.00 | 0.00 | 0.00 | 90 | 1004.6 |
| 20260506020004 | 25 | 213 | 3.2 | 4.8 | 0.00 | 0.00 | 0.00 | 90 | 1004.5 |
| 20260506015501 | 25 | 147 | 1.6 | 3.2 | 0.00 | 0.00 | 0.00 | 90 | 1004.2 |
| 20260506014958 | 25 | 239 | 3.2 | 4.8 | 0.00 | 0.00 | 0.00 | 90 | 1004.4 |
| 20260506014455 | 25 | 154 | 3.2 | 3.2 | 0.00 | 0.00 | 0.00 | 90 | 1004.2 |
| 20260506013951 | 25 | 192 | 3.2 | 4.8 | 0.00 | 0.00 | 0.00 | 89 | 1004.3 |
| 20260506013450 | 25 | 169 | 3.2 | 6.4 | 0.00 | 0.00 | 0.00 | 89 | 1003.8 |
| 20260506012945 | 26 | 186 | 3.2 | 3.2 | 0.00 | 0.00 | 0.00 | 89 | 1004.0 |
| 20260506012442 | 26 | 172 | 1.6 | 1.6 | 0.00 | 0.00 | 0.00 | 88 | 1004.0 |
| 20260506011939 | 26 | 185 | 3.2 | 3.2 | 0.00 | 0.00 | 0.00 | 88 | 1003.9 |
| 20260506011436 | 26 | 220 | 3.2 | 4.8 | 0.00 | 0.00 | 0.00 | 88 | 1003.8 |
| 20260506010933 | 26 | 198 | 4.8 | 4.8 | 0.00 | 0.00 | 0.00 | 87 | 1003.5 |
| 20260506010432 | 26 | 184 | 3.2 | 4.8 | 0.00 | 0.00 | 0.00 | 87 | 1003.7 |
| 20260506005928 | 26 | 166 | 1.6 | 3.2 | 0.00 | 0.00 | 0.00 | 86 | 1003.6 |
| 20260506005426 | 26 | 183 | 1.6 | 1.6 | 0.00 | 0.00 | 0.00 | 86 | 1003.4 |
| 20260506004921 | 26 | 179 | 8.0 | 11.3 | 0.00 | 0.00 | 0.00 | 85 | 1003.6 |
| 20260506004419 | 26 | 230 | 3.2 | 4.8 | 0.00 | 0.00 | 0.00 | 85 | 1003.3 |
| 20260506003915 | 27 | 207 | 3.2 | 4.8 | 0.00 | 0.00 | 0.00 | 85 | 1003.3 |
| 20260506003411 | 27 | 169 | 1.6 | 3.2 | 0.00 | 0.00 | 0.00 | 84 | 1003.2 |
| 20260506002908 | 27 | 186 | 1.6 | 3.2 | 0.00 | 0.00 | 0.00 | 84 | 1003.0 |
| 20260506002404 | 27 | 152 | 0.0 | 0.0 | 0.00 | 0.00 | 0.00 | 83 | 1003.3 |
| 20260506001859 | 27 | 204 | 3.2 | 3.2 | 0.00 | 0.00 | 0.00 | 83 | 1003.1 |
| 20260506001356 | 27 | 153 | 3.2 | 4.8 | 0.00 | 0.00 | 0.00 | 82 | 1003.0 |
| 20260506000854 | 28 | 143 | 9.7 | 12.9 | 0.00 | 0.00 | 0.00 | 81 | 1002.8 |
| 20260506000354 | 28 | 181 | 6.4 | 9.7 | 0.00 | 0.00 | 0.00 | 81 | 1002.8 |
| 20260505235848 | 28 | 197 | 3.2 | 3.2 | 0.00 | 0.00 | 0.00 | 80 | 1003.0 |
| 20260505235346 | 28 | 165 | 3.2 | 4.8 | 0.00 | 0.00 | 0.00 | 80 | 1003.0 |
| 20260505234842 | 28 | 168 | 4.8 | 6.4 | 0.00 | 0.00 | 0.00 | 80 | 1002.9 |
| 20260505234340 | 28 | 190 | 3.2 | 3.2 | 0.00 | 0.00 | 0.00 | 80 | 1003.0 |
| 20260505233837 | 28 | 206 | 3.2 | 4.8 | 0.00 | 0.00 | 0.00 | 79 | 1003.0 |
| 20260505233335 | 28 | 200 | 1.6 | 1.6 | 0.00 | 0.00 | 0.00 | 79 | 1003.0 |
| 20260505232832 | 28 | 174 | 6.4 | 9.7 | 0.00 | 0.00 | 0.00 | 78 | 1002.9 |
| 20260505232330 | 29 | 149 | 6.4 | 11.3 | 0.00 | 0.00 | 0.00 | 77 | 1002.8 |
| 20260505231826 | 29 | 213 | 8.0 | 11.3 | 0.00 | 0.00 | 0.00 | 76 | 1002.8 |
| 20260505231324 | 29 | 183 | 4.8 | 6.4 | 0.00 | 0.00 | 0.00 | 76 | 1003.0 |
| 20260505230822 | 28 | 216 | 6.4 | 6.4 | 0.00 | 0.00 | 0.00 | 76 | 1002.7 |
| 20260505230319 | 28 | 214 | 8.0 | 9.7 | 0.00 | 0.00 | 0.00 | 76 | 1002.8 |
| 20260505225815 | 28 | 174 | 6.4 | 6.4 | 0.00 | 0.00 | 0.00 | 75 | 1002.7 |
| 20260505225313 | 28 | 190 | 3.2 | 4.8 | 0.00 | 0.00 | 0.00 | 77 | 1002.7 |
| 20260505224808 | 29 | 197 | 6.4 | 6.4 | 0.00 | 0.00 | 0.00 | 76 | 1002.8 |
| 20260505224306 | 29 | 152 | 3.2 | 4.8 | 0.00 | 0.00 | 0.00 | 76 | 1003.1 |
| 20260505223803 | 29 | 193 | 8.0 | 9.7 | 0.00 | 0.00 | 0.00 | 76 | 1002.9 |
| 20260505223300 | 29 | 225 | 6.4 | 9.7 | 0.00 | 0.00 | 0.00 | 76 | 1002.8 |
| 20260505222755 | 28 | 199 | 6.4 | 6.4 | 0.00 | 0.00 | 0.00 | 76 | 1002.8 |
| 20260505222251 | 28 | 190 | 6.4 | 9.7 | 0.00 | 0.00 | 0.00 | 76 | 1002.7 |
| 20260505221749 | 28 | 215 | 9.7 | 14.5 | 0.00 | 0.00 | 0.00 | 76 | 1002.9 |
| 20260505221245 | 28 | 179 | 6.4 | 9.7 | 0.00 | 0.00 | 0.00 | 76 | 1003.0 |
| 20260505220742 | 29 | 233 | 8.0 | 9.7 | 0.00 | 0.00 | 0.00 | 76 | 1003.0 |
| 20260505220239 | 29 | 246 | 6.4 | 6.4 | 0.00 | 0.00 | 0.00 | 75 | 1003.2 |
| 20260505215738 | 29 | 217 | 9.7 | 12.9 | 0.00 | 0.00 | 0.00 | 75 | 1003.2 |
| 20260505215235 | 29 | 233 | 11.3 | 14.5 | 0.00 | 0.00 | 0.00 | 74 | 1003.2 |
| 20260505214733 | 28 | 236 | 6.4 | 9.7 | 0.00 | 0.00 | 0.00 | 76 | 1003.2 |
| 20260505214230 | 28 | 249 | 8.0 | 9.7 | 0.00 | 0.00 | 0.00 | 75 | 1003.0 |
| 20260505213727 | 29 | 202 | 14.5 | 16.1 | 0.00 | 0.00 | 0.00 | 74 | 1003.4 |
| 20260505213224 | 29 | 208 | 6.4 | 9.7 | 0.00 | 0.00 | 0.00 | 75 | 1003.3 |
| 20260505212720 | 28 | 182 | 8.0 | 11.3 | 0.00 | 0.00 | 0.00 | 75 | 1003.4 |
| 20260505212218 | 28 | 221 | 6.4 | 6.4 | 0.00 | 0.00 | 0.00 | 76 | 1003.5 |
| 20260505211715 | 28 | 194 | 9.7 | 12.9 | 0.00 | 0.00 | 0.00 | 75 | 1003.6 |
| 20260505211212 | 28 | 198 | 9.7 | 11.3 | 0.00 | 0.00 | 0.00 | 76 | 1003.5 |
| 20260505210708 | 28 | 255 | 6.4 | 6.4 | 0.00 | 0.00 | 0.00 | 76 | 1003.5 |
| 20260505210205 | 28 | 197 | 12.9 | 14.5 | 0.00 | 0.00 | 0.00 | 76 | 1003.9 |
| 20260505205703 | 28 | 248 | 14.5 | 17.7 | 0.00 | 0.00 | 0.00 | 75 | 1004.0 |
| 20260505205201 | 28 | 238 | 9.7 | 9.7 | 0.00 | 0.00 | 0.00 | 77 | 1004.3 |
| 20260505204657 | 28 | 109 | 8.0 | 12.9 | 0.00 | 0.00 | 0.00 | 77 | 1004.1 |
| 20260505204155 | 28 | 249 | 4.8 | 6.4 | 0.00 | 0.00 | 0.00 | 78 | 1004.2 |
| 20260505203652 | 28 | 204 | 3.2 | 3.2 | 0.00 | 0.00 | 0.00 | 79 | 1004.2 |
| 20260505203148 | 28 | 147 | 9.7 | 14.5 | 0.00 | 0.00 | 0.00 | 79 | 1004.4 |
| 20260505202644 | 28 | 228 | 12.9 | 16.1 | 0.00 | 0.00 | 0.00 | 78 | 1004.5 |
| 20260505202140 | 28 | 345 | 3.2 | 3.2 | 0.00 | 0.00 | 0.00 | 80 | 1004.3 |
| 20260505201637 | 28 | 152 | 4.8 | 9.7 | 0.00 | 0.00 | 0.00 | 78 | 1004.6 |
| 20260505201135 | 28 | 224 | 12.9 | 16.1 | 0.00 | 0.00 | 0.00 | 77 | 1004.4 |
| 20260505200633 | 28 | 262 | 9.7 | 12.9 | 0.00 | 0.00 | 0.00 | 79 | 1004.4 |
| 20260505200130 | 27 | 203 | 8.0 | 11.3 | 0.00 | 0.00 | 0.00 | 80 | 1004.8 |
| 20260505195626 | 27 | 232 | 9.7 | 16.1 | 0.00 | 0.00 | 0.00 | 80 | 1004.7 |
| 20260505195123 | 27 | 211 | 9.7 | 11.3 | 0.00 | 0.00 | 0.00 | 80 | 1004.8 |
| 20260505194620 | 27 | 220 | 9.7 | 12.9 | 0.00 | 0.00 | 0.00 | 82 | 1004.9 |
| 20260505194116 | 27 | 195 | 8.0 | 11.3 | 0.00 | 0.00 | 0.00 | 81 | 1004.9 |
| 20260505193613 | 27 | 197 | 6.4 | 6.4 | 0.00 | 0.00 | 0.00 | 81 | 1005.0 |
| 20260505193110 | 27 | 198 | 4.8 | 6.4 | 0.00 | 0.00 | 0.00 | 82 | 1005.3 |
| 20260505192609 | 27 | 190 | 9.7 | 14.5 | 0.00 | 0.00 | 0.00 | 82 | 1005.3 |
| 20260505192106 | 27 | 227 | 6.4 | 6.4 | 0.00 | 0.00 | 0.00 | 82 | 1005.3 |
| 20260505191604 | 27 | 235 | 6.4 | 11.3 | 0.00 | 0.00 | 0.00 | 83 | 1005.2 |
| 20260505191102 | 27 | 195 | 9.7 | 12.9 | 0.00 | 0.00 | 0.00 | 82 | 1005.7 |
| 20260505190556 | 26 | 200 | 6.4 | 9.7 | 0.00 | 0.00 | 0.00 | 84 | 1005.6 |
| 20260505190052 | 26 | 220 | 8.0 | 9.7 | 0.00 | 0.00 | 0.00 | 84 | 1005.7 |
| 20260505185549 | 26 | 176 | 6.4 | 9.7 | 0.00 | 0.00 | 0.00 | 85 | 1005.7 |
| 20260505185045 | 26 | 159 | 6.4 | 9.7 | 0.00 | 0.00 | 0.00 | 85 | 1005.6 |
| 20260505184542 | 26 | 201 | 9.7 | 12.9 | 0.00 | 0.00 | 0.00 | 83 | 1005.9 |
| 20260505184039 | 26 | 185 | 6.4 | 6.4 | 0.00 | 0.00 | 0.00 | 84 | 1005.9 |
| 20260505183536 | 26 | 232 | 11.3 | 12.9 | 0.00 | 0.00 | 0.00 | 84 | 1006.2 |
| 20260505183033 | 26 | 253 | 6.4 | 6.4 | 0.00 | 0.00 | 0.00 | 85 | 1006.2 |
| 20260505182529 | 26 | 265 | 11.3 | 14.5 | 0.00 | 0.00 | 0.00 | 84 | 1005.9 |
| 20260505182026 | 26 | 204 | 8.0 | 9.7 | 0.00 | 0.00 | 0.00 | 84 | 1006.0 |
| 20260505181523 | 26 | 211 | 11.3 | 16.1 | 0.00 | 0.00 | 0.00 | 85 | 1006.1 |
| 20260505181020 | 25 | 209 | 6.4 | 9.7 | 0.00 | 0.00 | 0.00 | 86 | 1006.1 |
| 20260505180510 | 25 | 182 | 6.4 | 9.7 | 0.00 | 0.00 | 0.00 | 86 | 1006.0 |
| 20260505180009 | 25 | 208 | 9.7 | 17.7 | 0.00 | 0.00 | 0.00 | 87 | 1006.0 |
| 20260505175503 | 26 | 218 | 12.9 | 14.5 | 0.00 | 0.00 | 0.00 | 86 | 1006.2 |
| 20260505175000 | 25 | 206 | 6.4 | 6.4 | 0.00 | 0.00 | 0.00 | 87 | 1006.0 |
| 20260505174457 | 25 | 268 | 4.8 | 6.4 | 0.00 | 0.00 | 0.00 | 88 | 1006.2 |
| 20260505173953 | 25 | 227 | 6.4 | 9.7 | 0.00 | 0.00 | 0.00 | 88 | 1006.3 |
| 20260505173450 | 25 | 214 | 8.0 | 9.7 | 0.00 | 0.00 | 0.00 | 89 | 1006.3 |
| 20260505172947 | 24 | 200 | 6.4 | 9.7 | 0.00 | 0.00 | 0.00 | 90 | 1006.3 |
| 20260505172445 | 24 | 163 | 9.7 | 12.9 | 0.00 | 0.00 | 0.00 | 91 | 1006.3 |
| 20260505171944 | 24 | 210 | 6.4 | 6.4 | 0.00 | 0.00 | 0.00 | 90 | 1006.4 |
| 20260505171441 | 24 | 213 | 8.0 | 11.3 | 0.00 | 0.00 | 0.00 | 90 | 1006.4 |
| 20260505170938 | 24 | 213 | 6.4 | 9.7 | 0.00 | 0.00 | 0.00 | 91 | 1006.4 |
| 20260505170434 | 24 | 254 | 6.4 | 6.4 | 0.00 | 0.00 | 0.00 | 91 | 1006.6 |
| 20260505165924 | 23 | 230 | 3.2 | 4.8 | 0.00 | 0.00 | 0.00 | 91 | 1006.6 |
| 20260505165420 | 24 | 237 | 4.8 | 6.4 | 0.00 | 0.00 | 0.00 | 91 | 1006.4 |
| 20260505164915 | 24 | 224 | 12.9 | 16.1 | 0.00 | 0.00 | 0.00 | 90 | 1006.6 |
| 20260505164407 | 24 | 193 | 8.0 | 11.3 | 0.00 | 0.00 | 0.00 | 91 | 1006.4 |
| 20260505163905 | 23 | 256 | 8.0 | 9.7 | 0.00 | 0.00 | 0.00 | 91 | 1006.3 |
| 20260505163404 | 23 | 212 | 6.4 | 9.7 | 0.00 | 0.00 | 0.00 | 92 | 1006.3 |
| 20260505162902 | 23 | 213 | 8.0 | 11.3 | 0.00 | 0.00 | 0.00 | 92 | 1006.3 |
| 20260505162357 | 23 | 202 | 9.7 | 11.3 | 0.00 | 0.00 | 0.00 | 92 | 1006.5 |
| 20260505161855 | 23 | 259 | 9.7 | 11.3 | 0.00 | 0.00 | 0.00 | 93 | 1006.5 |
| 20260505161351 | 23 | 244 | 11.3 | 14.5 | 0.00 | 0.00 | 0.00 | 95 | 1006.6 |
| 20260505160848 | 23 | 197 | 9.7 | 16.1 | 0.00 | 0.00 | 0.00 | 97 | 1006.4 |
| 20260505160347 | 22 | 227 | 6.4 | 6.4 | 0.00 | 0.00 | 0.00 | 98 | 1006.8 |
| 20260505153326 | 22 | 253 | 9.7 | 11.3 | 0.00 | 0.00 | 0.00 | 99 | 1006.5 |
| 20260505152823 | 22 | 229 | 4.8 | 4.8 | 0.00 | 0.00 | 0.00 | 99 | 1006.5 |
| 20260505152320 | 22 | 246 | 4.8 | 4.8 | 0.00 | 0.00 | 0.00 | 99 | 1006.5 |
| 20260505151819 | 22 | 196 | 3.2 | 3.2 | 0.00 | 0.00 | 0.00 | 99 | 1006.4 |
| 20260505151316 | 22 | 187 | 6.4 | 9.7 | 0.00 | 0.00 | 0.00 | 99 | 1006.3 |
| 20260505150813 | 22 | 198 | 8.0 | 9.7 | 0.00 | 0.00 | 0.00 | 99 | 1006.5 |
| 20260505150310 | 22 | 203 | 4.8 | 4.8 | 0.00 | 0.00 | 0.00 | 99 | 1006.3 |
| 20260505140235 | 21 | 237 | 8.0 | 9.7 | 0.00 | 0.00 | 0.00 | 98 | 1006.1 |
| 20260505130159 | 21 | 232 | 8.0 | 12.9 | 0.00 | 0.00 | 0.00 | 99 | 1005.6 |
| 20260505124649 | 21 | 214 | 8.0 | 11.3 | 0.00 | 0.00 | 0.00 | 99 | 1005.6 |
| 20260505124145 | 21 | 220 | 8.0 | 9.7 | 0.00 | 0.00 | 0.00 | 99 | 1005.6 |
| 20260505123641 | 21 | 192 | 6.4 | 9.7 | 0.00 | 0.00 | 0.00 | 99 | 1005.3 |
| 20260505123138 | 21 | 231 | 6.4 | 11.3 | 0.00 | 0.00 | 0.00 | 99 | 1005.3 |
| 20260505122634 | 21 | 213 | 3.2 | 4.8 | 0.00 | 0.00 | 0.00 | 99 | 1005.3 |
| 20260505122132 | 21 | 201 | 4.8 | 6.4 | 0.00 | 0.00 | 0.00 | 99 | 1005.4 |
| 20260505121623 | 21 | 230 | 6.4 | 9.7 | 0.00 | 0.00 | 0.00 | 99 | 1004.9 |
| 20260505121120 | 21 | 228 | 6.4 | 9.7 | 0.00 | 0.00 | 0.00 | 99 | 1005.2 |
| 20260505120615 | 21 | 215 | 4.8 | 4.8 | 0.00 | 0.00 | 0.00 | 99 | 1005.1 |
| 20260505120111 | 21 | 211 | 6.4 | 6.4 | 0.00 | 0.00 | 0.00 | 99 | 1005.2 |
| 20260505115606 | 21 | 167 | 4.8 | 4.8 | 0.00 | 0.00 | 0.00 | 99 | 1005.2 |
| 20260505115104 | 21 | 221 | 6.4 | 9.7 | 0.00 | 0.00 | 0.00 | 99 | 1005.2 |
| 20260505114600 | 21 | 203 | 9.7 | 12.9 | 0.00 | 0.00 | 0.00 | 99 | 1005.0 |
| 20260505114057 | 21 | 163 | 4.8 | 6.4 | 0.00 | 0.00 | 0.00 | 99 | 1005.0 |
| 20260505113554 | 21 | 199 | 4.8 | 4.8 | 0.00 | 0.00 | 0.00 | 99 | 1004.9 |
| 20260505113050 | 20 | 231 | 8.0 | 11.3 | 0.00 | 0.00 | 0.00 | 99 | 1005.0 |
| 20260505112546 | 20 | 199 | 6.4 | 9.7 | 0.00 | 0.00 | 0.00 | 99 | 1004.9 |
| 20260505112044 | 20 | 178 | 4.8 | 4.8 | 0.00 | 0.00 | 0.00 | 98 | 1004.9 |
| 20260505111538 | 20 | 226 | 8.0 | 11.3 | 0.00 | 0.00 | 0.00 | 98 | 1004.9 |
| 20260505111035 | 20 | 180 | 9.7 | 12.9 | 0.00 | 0.00 | 0.00 | 98 | 1005.0 |
| 20260505110531 | 20 | 154 | 3.2 | 4.8 | 0.00 | 0.00 | 0.00 | 98 | 1005.1 |
| 20260505102004 | 20 | 230 | 6.4 | 12.9 | 0.00 | 0.00 | 0.00 | 98 | 1005.3 |
| 20260505101503 | 20 | 198 | 4.8 | 6.4 | 0.00 | 0.00 | 0.00 | 98 | 1005.1 |
| 20260505100958 | 20 | 235 | 9.7 | 12.9 | 0.00 | 0.00 | 0.00 | 98 | 1004.9 |
| 20260505100455 | 20 | 206 | 6.4 | 9.7 | 0.00 | 0.00 | 0.00 | 98 | 1005.3 |
| 20260505095951 | 20 | 221 | 9.7 | 12.9 | 0.00 | 0.00 | 0.00 | 98 | 1005.4 |
| 20260505095448 | 20 | 229 | 6.4 | 6.4 | 0.00 | 0.00 | 0.00 | 98 | 1005.1 |
| 20260505094944 | 20 | 222 | 12.9 | 14.5 | 0.00 | 0.00 | 0.00 | 98 | 1005.0 |
| 20260505094441 | 20 | 221 | 12.9 | 14.5 | 0.00 | 0.00 | 0.00 | 98 | 1005.0 |
| 20260505093937 | 20 | 202 | 11.3 | 12.9 | 0.00 | 0.00 | 0.00 | 98 | 1005.2 |
| 20260505093434 | 20 | 192 | 4.8 | 6.4 | 0.00 | 0.00 | 0.00 | 98 | 1005.3 |
| 20260505092931 | 20 | 228 | 16.1 | 17.7 | 0.00 | 0.00 | 0.00 | 98 | 1005.6 |
| 20260505092429 | 20 | 249 | 9.7 | 11.3 | 0.00 | 0.00 | 0.00 | 97 | 1005.4 |
| 20260505091926 | 20 | 221 | 11.3 | 12.9 | 0.00 | 0.00 | 0.00 | 97 | 1005.4 |
| 20260505091424 | 20 | 205 | 14.5 | 20.9 | 0.00 | 0.00 | 0.00 | 97 | 1005.2 |
| 20260505090921 | 20 | 214 | 8.0 | 9.7 | 0.00 | 0.00 | 0.00 | 97 | 1005.4 |
| 20260505090420 | 20 | 231 | 12.9 | 16.1 | 0.00 | 0.00 | 0.00 | 97 | 1005.3 |
| 20260505085917 | 20 | 228 | 12.9 | 16.1 | 0.00 | 0.00 | 0.00 | 97 | 1005.4 |
| 20260505085415 | 20 | 169 | 8.0 | 11.3 | 0.00 | 0.00 | 0.00 | 97 | 1005.9 |
| 20260505084913 | 20 | 223 | 11.3 | 14.5 | 0.00 | 0.00 | 0.00 | 98 | 1005.7 |
| 20260505084410 | 20 | 156 | 8.0 | 12.9 | 0.00 | 0.00 | 0.00 | 98 | 1005.7 |
| 20260505083909 | 20 | 212 | 9.7 | 12.9 | 0.00 | 0.00 | 0.00 | 97 | 1005.6 |
| 20260505083406 | 20 | 220 | 9.7 | 11.3 | 0.00 | 0.00 | 0.00 | 97 | 1005.7 |
| 20260505082901 | 20 | 253 | 8.0 | 9.7 | 0.00 | 0.00 | 0.00 | 97 | 1005.7 |
| 20260505082357 | 20 | 248 | 9.7 | 12.9 | 0.00 | 0.00 | 0.00 | 97 | 1005.8 |
| 20260505081854 | 20 | 219 | 11.3 | 12.9 | 0.00 | 0.00 | 0.00 | 97 | 1005.6 |